FENGYUN 1C DEB, 30766

Orbit data source: Space-Track

FENGYUN 1C DEB, 30766 is space debris in SSO originally from a launch on Mon, 10 May 1999 UTC launched from the Taiyaun Space Center, China (TSC). Fengyun 1C debris stems from the Chinese weather satellite Fengyun-1C, which was intentionally destroyed by a Chinese anti-satellite missile in 2007. This event dramatically increased the amount of space debris, with thousands of trackable fragments posing hazards to satellites and human spaceflight. The Fengyun 1C debris cloud has become a focal point in discussions about space sustainability and the need for international regulations to prevent the creation of new debris.

Loading next visibility...
Identifier
30766, 1999-025AUC
Orbit
SSO
Country
Flag of CNCN / PRC
Related business
Manufacturer
Unknown
Mission
Spacecraft
Bus & Motor
Unknown
Mass
Unknown
Launch date (UTC)
1999-05-10 (27 years ago)
Launch vehicle
Unknown
Launch site
Taiyaun Space Center, China (TSC)
Object type
Payload
Rocket body
Debris
Shape & HBR
Unknown shape, 0.1 m
Radar Cross Section
Small (<0.1 m²)

Expand to show TLE details & history
Last TLE update: 4 days ago

TLE from 4 days ago
0 FENGYUN 1C DEB
1 30766U 99025AUC 26146.25511331  .00000934  00000-0  53725-3 0  9998
2 30766  98.6762 145.7556 0081604 328.9029  46.0579 14.09952879651150
Epoch: 2026-05-26T06:07Z
TLE epoch observation values (Epoch: 2026-05-26T06:07:21.789Z)
Latitude
15.43356°
Longitude
167.68196°
Altitude
821.005 km
Speed
7.465 km/s
True Right ascension
09h 33m 24s
True Declination
15° 20' 47"
Sunlit
Object was in daylight at epoch
Visualization orbit readout
Latitude
Unknown
Longitude
Unknown
Altitude
Unknown
Speed
Unknown
Apparent Right ascension
Unknown
Apparent Declination
Unknown
Sunlit
N/A
Visualization observer readout
Local Sidereal Time
22:26:35
Azimuth
Unknown
Elevation
Unknown
Doppler factor
Unknown
Orbital elements
Apogee altitude
915.742 km
Perigee altitude
797.664 km
Semi-major axis
7,234.84 km
Eccentricity
0.00816
Inclination
98.6762°
RAAN
145.7556°
Arg. of periapsis
328.9029°
True anomaly
46.736°
Mean anomaly
46.0579°
Eccentric anomaly
46.39647°
Mean motion
3.52695 °/min
Orbital period
102.07 mins
BSTAR
0.00053725
Loading maneuver chart data...
Computing Atmospheric mass density...

Documentation

Showing up to 5 results
|